TimeEST,TemperatureF,Dew PointF,Humidity,Sea Level PressureIn,VisibilityMPH,Wind Direction,Wind SpeedMPH,Gust SpeedMPH,PrecipitationIn,Events,Conditions,WindDirDegrees,DateUTC
12:56 AM,37.9,35.1,89,29.99,-9999.0,South,4.6,-,N/A,,Unknown,170,2012-11-07 05:56:00
1:56 AM,37.9,35.1,89,30.00,-9999.0,Variable,4.6,-,N/A,,Unknown,0,2012-11-07 06:56:00
2:56 AM,37.9,35.1,89,30.01,-9999.0,Calm,Calm,-,N/A,,Unknown,0,2012-11-07 07:56:00
3:56 AM,37.9,35.1,89,30.03,-9999.0,Calm,Calm,-,N/A,,Unknown,0,2012-11-07 08:56:00
4:56 AM,37.9,34.0,86,30.03,-9999.0,South,4.6,-,N/A,,Unknown,180,2012-11-07 09:56:00
5:56 AM,37.9,34.0,86,30.04,-9999.0,SSW,5.8,-,N/A,,Unknown,210,2012-11-07 10:56:00
6:56 AM,37.0,34.0,89,30.06,-9999.0,South,6.9,-,N/A,,Unknown,180,2012-11-07 11:56:00
7:56 AM,37.0,33.1,86,30.08,-9999.0,South,3.5,-,N/A,,Unknown,190,2012-11-07 12:56:00
8:56 AM,37.9,33.1,83,30.09,-9999.0,South,4.6,-,N/A,,Unknown,190,2012-11-07 13:56:00
9:56 AM,39.0,34.0,82,30.10,-9999.0,South,5.8,-,N/A,,Unknown,170,2012-11-07 14:56:00
10:56 AM,42.1,35.1,76,30.11,-9999.0,South,8.1,-,N/A,,Unknown,170,2012-11-07 15:56:00
11:56 AM,44.1,35.1,71,30.10,-9999.0,South,8.1,-,N/A,,Unknown,180,2012-11-07 16:56:00
12:56 PM,44.1,34.0,68,30.10,-9999.0,SSW,6.9,-,N/A,,Unknown,200,2012-11-07 17:56:00
1:56 PM,44.1,33.1,65,30.09,-9999.0,SSE,10.4,16.1,N/A,,Unknown,160,2012-11-07 18:56:00
2:56 PM,44.1,32.0,63,30.09,-9999.0,South,6.9,-,N/A,,Unknown,190,2012-11-07 19:56:00
3:56 PM,43.0,32.0,65,30.10,-9999.0,South,9.2,-,N/A,,Unknown,180,2012-11-07 20:56:00
4:56 PM,43.0,32.0,65,30.10,-9999.0,SSE,6.9,-,N/A,,Unknown,160,2012-11-07 21:56:00
5:56 PM,42.1,32.0,67,30.12,-9999.0,SSE,4.6,-,N/A,,Unknown,160,2012-11-07 22:56:00
6:56 PM,41.0,32.0,70,30.13,-9999.0,South,4.6,-,N/A,,Unknown,170,2012-11-07 23:56:00
7:56 PM,41.0,32.0,70,30.13,-9999.0,South,4.6,-,N/A,,Unknown,180,2012-11-08 00:56:00
8:56 PM,41.0,32.0,70,30.13,-9999.0,SSW,4.6,-,N/A,,Unknown,200,2012-11-08 01:56:00
9:56 PM,39.9,33.1,77,30.14,-9999.0,SSW,4.6,-,N/A,,Unknown,200,2012-11-08 02:56:00
10:56 PM,39.0,35.1,86,30.13,-9999.0,Calm,Calm,-,N/A,,Unknown,0,2012-11-08 03:56:00
11:56 PM,39.0,35.1,86,30.12,-9999.0,South,3.5,-,N/A,,Unknown,190,2012-11-08 04:56:00